Other Public Products
Issued by NWS Grand Forks, ND

Home | Current Version | Previous Version | Text Only | Print | Product List | Glossary Off
Versions: 1 2 3 4 5 6 7 8 9 10 11 12 13 14 15 16 17 18 19 20 21 22 23 24 25 26 27 28 29 30 31 32 33 34 35 36 37 38 39 40 41 42 43 44 45 46 47 48 49 50

000
FPUS83 KFGF 310531
OPUFGF
PRAIRIE TO PINES WEATHER ROUNDUP
NATIONAL WEATHER SERVICE EASTERN NORTH DAKOTA/GRAND FORKS ND
1200 AM CDT FRI JUL 31 2015

 **SATELLITE DATA USED TO AUGMENT SKY COVER AT AUTOMATED STATIONS**
 *****  WEATHER ACROSS EASTERN NORTH DAKOTA  *****

CITY           SKY/WX    TMP DP  RH WIND       PRES   REMARKS
GRAND FORKS    CLEAR     58  52  80 W8        30.02S
GRAND FORKS AF CLEAR     60  52  73 W6        30.03S
GRAND CITY NWS   N/A     63 N/A N/A W7          N/A
BUXTON         NOT AVBL
DEVILS LAKE    CLEAR     63  50  63 W9        30.07S
FARGO          CLEAR     63  55  75 W6        30.05S
WAHPETON ARPT  CLEAR     61  52  72 NW3       30.06S
$$

 *****  WEATHER ACROSS CENTRAL AND WESTERN NORTH DAKOTA  *****

CITY           SKY/WX    TMP DP  RH WIND       PRES   REMARKS
JAMESTOWN      CLEAR     62  53  72 NW9       30.10S
BISMARCK       CLEAR     60  52  74 CALM      30.15S
MINOT          CLEAR     61  48  62 SW7       30.12S
MINOT AFB      CLEAR     55  53  91 W9        30.11S
GARRISON         N/A     58  52  80 NW8       30.15S
WILLISTON      CLEAR     59  51  75 N3        30.16S
DICKINSON      CLEAR     60  48  64 S5        30.19R
HETTINGER      CLEAR     53  47  79 W3        30.21R
$$

 *****  OTHER OBSERVATIONS NORTHEAST NORTH DAKOTA  *****

CITY           SKY/WX    TMP DP  RH WIND       PRES   REMARKS
WALHALLA       FAIR      64  50  59 MISG      30.01S
LANGDON        FAIR      54  52  94 W9        30.06S
CAVALIER       FAIR      64  50  59 W13       30.00F
GRAFTON        FAIR      64  54  68 W12       30.01F
CANDO          FAIR      54  50  87 W9        30.08F
FORT TOTTEN      N/A     66  56  69 NW5       29.95S
ROLLA          MOCLDY    57  50  77 W10       30.09F
RUGBY          NOT AVBL
 ***** THE ABOVE OBSERVATIONS ARE NON NWS ARE NOT QUALITY
        CONTROLLED AND MAY MIS-REPORT RAIN FOR SNOW...
$$

 *****  OTHER OBSERVATIONS SOUTHEAST NORTH DAKOTA *****

CITY           SKY/WX    TMP DP  RH WIND       PRES   REMARKS
COOPERSTOWN    NOT AVBL
VALLEY CITY    FAIR      63  54  72 W9        30.09S
OAKES            N/A     63  57  82 NW6       30.10S
GWINNER        FAIR      64  54  68 NW9       30.10S
SHEYENNE NWR     N/A     62  56  81 W2        29.95S
BUFFALO        NOT AVBL
WYNDMERE       NOT AVBL
 ***** THE ABOVE OBSERVATIONS ARE NON NWS ARE NOT QUALITY
       CONTROLLED AND MAY MIS-REPORT RAIN FOR SNOW...
$$

  *****  WEATHER ACROSS NORTHERN MINNESOTA  *****

CITY           SKY/WX    TMP DP  RH WIND       PRES   REMARKS
FLAG ISLAND    PTCLDY    63  57  82 W7        29.91S
WARROAD        CLEAR     61  55  82 W6        29.95S
ROSEAU         CLEAR     63  54  72 W7        29.96S
HALLOCK        CLEAR     57  54  88 W7        29.98S
THF RVR FALLS  CLEAR     61  52  72 W8        30.00F
HALSTAD        NOT AVBL
FOSSTON        CLEAR     61  48  63 W8        30.02F
BAUDETTE       PTCLDY    62  56  80 W7        29.93R
WASKISH        PTCLDY    66  55  68 W16G22    29.95S
CROOKSTON      CLEAR     59  52  77 W7        30.02S
$$
  *****  WEATHER ACROSS CENTRAL AND WEST MINNESOTA  *****

CITY           SKY/WX    TMP DP  RH WIND       PRES   REMARKS
BEMIDJI        PTCLDY    65  49  56 W12       30.00S
PARK RAPIDS    CLEAR     66  52  60 NW12      30.02R
WADENA         CLEAR     66  54  63 W7        30.04S
DETROIT LAKES  CLEAR     64  52  63 NW9       30.06S
MOORHEAD       CLEAR     61  55  82 NW7       30.06S
FERGUS FALLS   CLEAR     63  55  77 N7        30.06S
ELBOW LAKE     FAIR      64  57  79 NW8       30.06S
MORRIS MN      CLEAR     63  59  88 W7        30.06S
STAPLES        CLEAR     64  54  68 W7        30.03R
WHEATON        CLEAR     63  57  82 W7        30.09R
$$
  *****  WEATHER ELSEWHERE ACROSS MINNESOTA  *****

CITY           SKY/WX    TMP DP  RH WIND       PRES   REMARKS
DULUTH         PTCLDY    64  53  67 W10       29.93F
INTRNTL FALLS  PTCLDY    58  55  90 CALM      29.90F
ELY            CLOUDY    64  54  68 NW5       29.92S
CLOQUET        CLEAR     66  54  63 W9        29.94F
BRAINERD       CLEAR     69  55  60 W8        30.00F
HIBBING        PTCLDY    61  54  77 N3        29.93F
ALEXANDRIA     CLEAR     65  58  78 W6        30.07S
SAINT CLOUD    CLEAR     65  59  81 W6        30.02S
MINNEAPOLIS    CLEAR     73  61  65 W8        30.02S
$$

  *****  WEATHER ACROSS SOUTH DAKOTA  *****

CITY           SKY/WX    TMP DP  RH WIND       PRES   REMARKS
SIOUX FALLS    PTCLDY    69  61  75 W5        30.11S
BROOKINGS      MOCLDY    68  59  73 CALM      30.15S
WATERTOWN      CLEAR     65  58  78 W5        30.13R
HURON          PTCLDY    68  62  81 E3        30.12R
SISSETON         N/A     65  54  67 NW9       30.07F
ABERDEEN       CLEAR     60  53  77 SW6       30.12S
MITCHELL       CLEAR     66  62  87 NW3       30.12R
PIERRE         CLEAR     65  57  75 CALM      30.14R
MOBRIDGE       CLEAR     65  54  67 W3        30.13S
RAPID CITY     CLEAR     63  51  65 CALM      30.21R
$$

  *****  SOME WEATHER IN NEARBY STATES *****

CITY           SKY/WX    TMP DP  RH WIND       PRES   REMARKS
GLASGOW MT     CLEAR     66  49  54 NE10      30.14S
GREAT FALLS MT FAIR      71  40  32 E12       30.17S
CHEYENNE WY    CLEAR     65  54  67 S6        30.40S
SCOTTSBLUFF NE CLEAR     66  51  58 E7        30.26S
OMAHA NE       PTCLDY    78  65  63 S3        30.12F
DES MOINES IA  CLEAR     74  65  73 SW6       30.11S
DAVENPORT IA   CLEAR     65  63  93 W3        30.08S
CHICAGO IL     CLEAR     75  59  57 W10       30.02R
EAU CLAIRE WI  CLEAR     65  57  75 SW7       29.99S
LA CROSSE WI   CLEAR     71  60  68 SE5       30.01F
$$

  *****  SOME NATIONAL WEATHER *****

CITY           SKY/WX    TMP DP  RH WIND       PRES   REMARKS
LA GUARDIA NY  PTCLDY    78  72  81 SW3       29.83S
RALEIGH NC     MOCLDY    82  74  76 VRB3      29.93R
ATLANTA GA     PTCLDY    78  72  81 NW8       29.96F
NEW ORLEANS LA MOCLDY    79  73  82 NW5       29.97F
OKLAHOMA CITY  PTCLDY    79  75  87 E6        30.15R
ALBUQUERQUE NM MOCLDY    72  58  61 E3        30.35S
SALT LAKE CITY PTCLDY    74  33  22 S6        30.21R
LOS ANGELES CA PTCLDY    70  66  87 W6        30.01R
BOISE ID       FAIR      78  36  21 SE3       30.12R
SEATTLE WA     FAIR      80  44  27 N7        30.04R
$$

*** WEATHER ACROSS MANITOBA...SASKATCHEWAN AND ONTARIO ***
                ***ONTARIO***

CITY           SKY/WX    TMP DP  RH WIND       PRES   REMARKS
GERALDTON      PTCLDY    59  57  94 W7        29.72S
THUNDER BAY    LGT RAIN  59  57  94 W9        29.82R
SIOUX LOOKOUT  MOCLDY    59  57  94 W6        29.82S
TORONTO        CLEAR     70  55  60 NW12G18   29.88R
BIG TROUT LK   MOCLDY    59  52  77 NW13G26   29.62
PICKLE LAKE    NOT AVBL
DRYDEN         PTCLDY    57  55  94 W13       29.85F
KENORA         PTCLDY    59  57  94 W6        29.90S
$$
                *** MANITOBA***

CITY           SKY/WX    TMP DP  RH WIND       PRES   REMARKS
BRANDON        CLEAR     52  50  93 W9        30.05S
DAUPHIN        CLEAR     59  54  82 W12       29.98F
ISLAND LAKE    MOCLDY    63  54  72 NW8       29.77S
PILOT MOUND      N/A     57  50  77 W5          N/A
THE PAS        MOCLDY    61  55  82 W10       29.91S
THOMPSON       LGT RAIN  57  54  88 W5        29.80S
WINNIPEG       PTCLDY    59  55  88 W8        29.96F
LYNN LAKE      MOCLDY    57  50  77 SW6       29.87S
CHURCHILL      MOCLDY    52  50  93 NW10      29.68S
GILLAM         PTCLDY    63  55  77 NW13      29.70S
$$
                ***SASKATCHEWAN***

CITY           SKY/WX    TMP DP  RH WIND       PRES   REMARKS
ESTEVAN        CLEAR     57  50  77 W6        30.13S
KINDERSLEY     PTCLDY    55  46  71 CALM      30.16
LLOYDMINSTER   MOCLDY    54  45  71 W6        30.14R
PRINCE ALBERT  PTCLDY    59  50  72 W5        30.05R
REGINA         PTCLDY    55  54  94 W3        30.12S



USA.gov is the U.S. government's official web portal to all federal, state and local government web resources and services.